Location: *
(49.9853°N, 3.5569°E)
Time: 06:18:10
(UTC+00:00)

Lacrosse 5 rocket - Pass Details

Date: 22 September 2019
Orbit: 459 x 639 km, 57.0° (Epoch: 17 October)

Event Time Altitude Azimuth Distance (km) Brightness Sun altitude
Rises 20:07:26 0° 244° (WSW) 2,499 5.1 -22.7°
Reaches altitude 10° 20:09:32 10° 247° (WSW) 1,641 4.2 -23.0°
Enters shadow 20:12:55 64° 300° (WNW) 546 1.4 -23.5°
